Location: North Fontana
(34.1395°N, 117.4623°W)
Time: 16:12:08
(UTC+00:00)

COSMO-SKYMED 1 - Pass Details

Date: 13 April 2024
Orbit: 621 x 623 km, 97.9° (Epoch: 20 May)

Event Time Altitude Azimuth Distance (km) Brightness Sun altitude
Rises 12:41:50 0° 151° (SSE) 2,891 6.1 -8.6°
Reaches altitude 10° 12:44:06 10° 145° (SE) 1,989 5.4 -8.1°
Maximum altitude 12:48:11 43° 74° (ENE) 880 4.1 -7.3°
Drops below altitude 10° 12:52:18 10° 3° (N) 2,001 5.4 -6.5°
Sets 12:54:35 0° 356° (N) 2,911 6.2 -6.0°
